DEL03 12.20 39.31969 -75.6061 0.000 0.000 20191206_1320 DEDOT DE 1 @ Paddock Rd, Smyrna DE USA current weather conditions

sailwx.info

Wind from 170 at 6 knots gusting 8

Air temperature 5.8° C
Dewpoint -2.8° C

Last reported at 2019-Dec-06 14:45 UTC.
Time now 2019-Dec-06 15:24 UTC

Location: N 39°19' W 075°36'.
View on Google Maps.

See reports from other nearby stations

  
Tides and Currents Weather Stations Pressure Air Temp Water Temp Dewpoint Dewpoint Depression Visibility Wind Speed Wind Dir Waves Ship Positions
date/time (UTC)wind fromknots sea level pressurealtimeterstation pressurevisibilityair tempwater tempwave heightnotes
2019-Dec-06 14:50 165 5 gusting 8 6.0
2019-Dec-06 14:45 170 6 gusting 8 5.8
2019-Dec-06 14:40 175 5 gusting 8 5.8
2019-Dec-06 14:35 175 5 gusting 10 5.8
2019-Dec-06 14:30 175 7 gusting 10 5.8
2019-Dec-06 14:25 180 7 gusting 11 5.8
2019-Dec-06 14:20 170 7 gusting 11 5.7
2019-Dec-06 14:15 180 6 gusting 10 5.6
2019-Dec-06 14:10 175 7 gusting 10 5.3
2019-Dec-06 14:05 175 5 gusting 7 5.3
2019-Dec-06 14:00 170 6 gusting 8 5.2
2019-Dec-06 13:55 180 4 gusting 9 5.2
2019-Dec-06 13:50 170 6 gusting 9 4.7
2019-Dec-06 13:45 190 5 gusting 8 4.2
2019-Dec-06 13:40 185 5 gusting 7 3.9
2019-Dec-06 13:35 175 4 gusting 7 3.6
2019-Dec-06 13:30 165 4 gusting 6 3.1
2019-Dec-06 13:25 175 4 gusting 6 2.9
2019-Dec-06 13:20 165 4 gusting 6 2.6
2019-Dec-06 13:15 165 3 gusting 6 2.7
2019-Dec-06 13:10 170 2 gusting 4 2.6
2019-Dec-06 13:05 170 2 gusting 3 2.6
2019-Dec-06 13:00 180 2 gusting 3 2.4
2019-Dec-06 12:55 190 1 gusting 3 2.1
2019-Dec-06 12:50 190 1 gusting 3 1.6
2019-Dec-06 12:45 195 2 gusting 2 1.2
2019-Dec-06 12:40 195 2 gusting 2 0.6
2019-Dec-06 12:35 200 1 gusting 2 0.1
2019-Dec-06 12:30 190 1 gusting 2 -0.4
2019-Dec-06 12:25 170 1 gusting 2 -0.9
2019-Dec-06 12:20 170 2 gusting 3 -1.4
2019-Dec-06 12:15 170 2 gusting 3 -1.5
2019-Dec-06 12:10 185 1 gusting 2 -1.6
2019-Dec-06 12:05 195 2 gusting 3 -1.8
2019-Dec-06 12:00 185 2 gusting 3 -1.8
2019-Dec-06 11:55 185 2 gusting 3 -1.9
2019-Dec-06 11:50 180 2 gusting 3 -1.9
2019-Dec-06 11:45 190 2 gusting 3 -2.0
2019-Dec-06 11:40 200 1 gusting 2 -2.1
2019-Dec-06 11:35 205 1 gusting 2 -2.0
2019-Dec-06 11:30 210 1 gusting 2 -1.9
2019-Dec-06 11:25 195 2 gusting 2 -1.9
2019-Dec-06 11:20 200 1 gusting 2 -2.0
2019-Dec-06 11:15 200 2 gusting 3 -1.9
2019-Dec-06 11:10 220 1 gusting 3 -2.0
2019-Dec-06 11:05 215 1 gusting 2 -2.0
2019-Dec-06 11:00 205 2 gusting 2 -2.0
2019-Dec-06 10:55 210 2 gusting 2 -2.0
2019-Dec-06 10:50 215 1 gusting 2 -1.9
2019-Dec-06 10:45 215 1 gusting 2 -1.9
2019-Dec-06 10:40 210 1 gusting 2 -1.9
2019-Dec-06 10:35 260 1 gusting 1 -1.9
2019-Dec-06 10:30 260 1 gusting 2 -1.9
2019-Dec-06 10:25 210 1 gusting 2 -1.6
2019-Dec-06 10:20 220 0 gusting 1 -1.5
2019-Dec-06 10:15 200 1 gusting 1 -1.5
2019-Dec-06 10:10 210 1 gusting 1 -1.4
2019-Dec-06 10:05 190 1 gusting 1 -1.4
2019-Dec-06 10:00 190 1 gusting 1 -1.6
2019-Dec-06 09:55 195 0 gusting 1 -1.5
2019-Dec-06 09:50 160 0 gusting 1 -1.4
2019-Dec-06 09:45 090 0 gusting 1 -1.4
2019-Dec-06 09:40 005 0 gusting 1 -1.3
2019-Dec-06 09:35 115 0 gusting 1 -1.4
2019-Dec-06 09:30 195 0 gusting 1 -1.4
2019-Dec-06 09:25 155 1 gusting 2 -1.4
2019-Dec-06 09:20 150 1 gusting 2 -1.3
2019-Dec-06 09:15 145 1 gusting 2 -0.9
2019-Dec-06 09:10 120 0 gusting 1 -0.8
2019-Dec-06 09:05 295 0 gusting 1 -0.7
2019-Dec-06 09:00 035 0 gusting 1 -0.7
2019-Dec-06 08:55 125 0 gusting 1 -0.7
2019-Dec-06 08:50 150 0 gusting 1 -0.4
2019-Dec-06 08:45 150 1 gusting 1 -0.3
2019-Dec-06 08:40 150 0 gusting 0 0.1
2019-Dec-06 08:35 145 0 gusting 0 0.2
2019-Dec-06 08:30 160 0 gusting 0 0.3
2019-Dec-06 08:25 160 0 gusting 1 0.3
2019-Dec-06 08:20 205 0 gusting 1 0.3
2019-Dec-06 08:15 185 1 gusting 1 0.5
2019-Dec-06 08:10 190 1 gusting 1 0.6
2019-Dec-06 08:05 185 1 gusting 1 0.6
2019-Dec-06 08:00 185 1 gusting 1 0.6
2019-Dec-06 07:55 185 1 gusting 1 0.6
2019-Dec-06 07:50 180 1 gusting 1 0.7
2019-Dec-06 07:45 190 0 gusting 1 1.0
2019-Dec-06 07:40 210 0 gusting 1 1.1
2019-Dec-06 07:35 160 1 gusting 1 1.4
2019-Dec-06 07:30 180 1 gusting 2 1.5
2019-Dec-06 07:25 200 2 gusting 2 1.4
2019-Dec-06 07:20 225 1 gusting 2 1.2
2019-Dec-06 07:15 235 1 gusting 2 1.2
2019-Dec-06 07:10 255 1 gusting 3 1.4
2019-Dec-06 07:05 250 2 gusting 3 1.6
2019-Dec-06 07:00 250 2 gusting 2 1.6
2019-Dec-06 06:55 250 1 gusting 3 1.6
2019-Dec-06 06:50 250 1 gusting 3 1.7
2019-Dec-06 06:45 235 2 gusting 4 1.7
2019-Dec-06 06:40 225 3 gusting 4 1.9
2019-Dec-06 06:35 225 3 gusting 4 1.9
2019-Dec-06 06:30 235 3 gusting 4 1.7
2019-Dec-06 06:25 225 3 gusting 4 1.7
2019-Dec-06 06:20 225 3 gusting 4 1.7
2019-Dec-06 06:15 235 2 gusting 5 1.7
2019-Dec-06 06:10 230 3 gusting 5 1.6
2019-Dec-06 06:05 245 3 gusting 4 1.5
2019-Dec-06 06:00 235 3 gusting 4 1.2
2019-Dec-06 05:55 230 2 gusting 4 0.8
2019-Dec-06 05:50 225 3 gusting 4 0.3
2019-Dec-06 05:45 230 3 gusting 4 0.1
2019-Dec-06 05:40 230 3 gusting 4 0.1
2019-Dec-06 05:35 220 2 gusting 3 0.1
2019-Dec-06 05:30 215 1 gusting 2 0.3
2019-Dec-06 05:25 220 1 gusting 2 0.7
2019-Dec-06 05:20 215 1 gusting 3 0.8
2019-Dec-06 05:15 215 1 gusting 3 0.5
2019-Dec-06 05:10 240 2 gusting 3 0.3
2019-Dec-06 05:05 240 2 gusting 3 0.5
2019-Dec-06 05:00 230 2 gusting 3 1.0
2019-Dec-06 04:55 210 2 gusting 3 1.1
2019-Dec-06 04:50 200 2 gusting 2 1.2
2019-Dec-06 04:45 195 2 gusting 2 1.6
2019-Dec-06 04:40 205 1 gusting 2 1.9
2019-Dec-06 04:35 200 1 gusting 2 2.1
2019-Dec-06 04:30 200 2 gusting 3 2.4
2019-Dec-06 04:25 200 2 gusting 4 2.6
2019-Dec-06 04:20 240 2 gusting 4 2.9
2019-Dec-06 04:15 245 3 gusting 5 2.7
2019-Dec-06 04:10 260 4 gusting 5 2.6
2019-Dec-06 04:05 265 4 gusting 5 2.7
2019-Dec-06 04:00 265 3 gusting 7 3.1
2019-Dec-06 03:55 250 4 gusting 7 3.2
2019-Dec-06 03:50 255 4 gusting 6 3.1
2019-Dec-06 03:45 260 4 gusting 8 2.9
2019-Dec-06 03:40 260 4 gusting 6 2.9
2019-Dec-06 03:35 260 4 gusting 6 3.1
2019-Dec-06 03:30 250 4 gusting 5 3.1
2019-Dec-06 03:25 225 3 gusting 5 3.2
2019-Dec-06 03:20 230 2 gusting 7 3.5
2019-Dec-06 03:15 250 3 gusting 8 3.6
2019-Dec-06 03:10 250 4 gusting 8 3.5
2019-Dec-06 03:05 255 4 gusting 6 3.2
2019-Dec-06 03:00 255 3 gusting 6 3.5
2019-Dec-06 02:55 235 2 gusting 6 3.6
2019-Dec-06 02:50 240 3 gusting 6 3.6
2019-Dec-06 02:45 245 3 gusting 6 3.6
2019-Dec-06 02:40 250 4 gusting 6 3.6
2019-Dec-06 02:35 265 3 gusting 8 3.6
2019-Dec-06 02:30 265 4 gusting 8 3.6
2019-Dec-06 02:25 255 4 gusting 8 3.7
2019-Dec-06 02:20 250 4 gusting 6 3.7
2019-Dec-06 02:15 250 3 gusting 5 3.9
2019-Dec-06 02:10 235 3 gusting 7 4.0
2019-Dec-06 02:05 245 4 gusting 7 4.1
2019-Dec-06 02:00 245 3 gusting 8 4.1
2019-Dec-06 01:55 255 4 gusting 8 4.0
2019-Dec-06 01:50 250 5 gusting 8 4.1
2019-Dec-06 01:45 265 4 gusting 7 4.1
2019-Dec-06 01:40 255 5 gusting 7 4.3
2019-Dec-06 01:35 255 4 gusting 7 4.5
2019-Dec-06 01:30 255 5 gusting 8 4.5
2019-Dec-06 01:25 265 4 gusting 10 4.5
2019-Dec-06 01:20 265 7 gusting 10 4.6
2019-Dec-06 01:15 270 6 gusting 9 4.5
2019-Dec-06 01:10 285 6 gusting 11 4.5
2019-Dec-06 01:05 260 6 gusting 11 4.5
2019-Dec-06 01:00 270 5 gusting 7 4.3
2019-Dec-06 00:55 265 3 gusting 8 4.5
2019-Dec-06 00:50 265 4 gusting 8 4.6
2019-Dec-06 00:45 265 4 gusting 8 4.6
2019-Dec-06 00:40 270 4 gusting 10 4.7
2019-Dec-06 00:35 265 6 gusting 10 4.7
2019-Dec-06 00:30 260 4 gusting 7 4.6
2019-Dec-06 00:25 265 4 gusting 8 4.8
2019-Dec-06 00:20 265 6 gusting 8 5.0
2019-Dec-06 00:15 260 5 gusting 8 5.0
2019-Dec-06 00:10 270 5 gusting 10 5.0
2019-Dec-06 00:05 270 5 gusting 10 4.8
2019-Dec-06 00:00 265 6 gusting 10 5.1
2019-Dec-05 23:55 270 5 gusting 10 5.0
2019-Dec-05 23:50 265 6 gusting 10 4.7
2019-Dec-05 23:45 280 7 gusting 10 4.6
2019-Dec-05 23:40 275 6 gusting 8 4.6
2019-Dec-05 23:35 260 3 gusting 7 4.7
2019-Dec-05 23:30 250 3 gusting 5 4.6
2019-Dec-05 23:25 260 3 gusting 5 4.6
2019-Dec-05 23:20 265 3 gusting 5 4.6
2019-Dec-05 23:15 275 3 gusting 6 4.8
2019-Dec-05 23:10 260 3 gusting 6 5.0
2019-Dec-05 23:05 280 3 gusting 11 5.0
2019-Dec-05 23:00 275 5 gusting 11 5.1
2019-Dec-05 22:55 290 6 gusting 9 5.1
2019-Dec-05 22:50 275 4 gusting 8 5.0
2019-Dec-05 22:45 275 4 gusting 8 5.1
2019-Dec-05 22:40 285 5 gusting 8 5.1
2019-Dec-05 22:35 280 4 gusting 8 5.1
2019-Dec-05 22:30 285 6 gusting 11 5.5
2019-Dec-05 22:25 285 6 gusting 11 5.6
2019-Dec-05 22:20 280 6 gusting 11 5.7
2019-Dec-05 22:15 285 6 gusting 11 5.8
2019-Dec-05 22:10 295 7 gusting 12 5.8
2019-Dec-05 22:05 300 9 gusting 15 6.0
2019-Dec-05 22:00 295 9 gusting 15 6.1
2019-Dec-05 21:55 300 10 gusting 17 6.1
2019-Dec-05 21:50 295 8 gusting 17 6.2
2019-Dec-05 21:45 295 9 gusting 15 6.2
2019-Dec-05 21:40 290 8 gusting 15 6.1
2019-Dec-05 21:35 290 10 gusting 18 6.2
2019-Dec-05 21:30 295 12 gusting 18 6.2
2019-Dec-05 21:25 285 11 gusting 21 6.2
2019-Dec-05 21:20 295 14 gusting 21 6.5
2019-Dec-05 21:15 285 15 gusting 22 6.6
2019-Dec-05 21:10 285 14 gusting 22 6.6
2019-Dec-05 21:05 280 14 gusting 22 6.6
2019-Dec-05 21:00 280 12 gusting 22 6.6
2019-Dec-05 20:55 275 14 gusting 22 6.6
2019-Dec-05 20:50 270 8 gusting 17 7.0
2019-Dec-05 20:45 295 8 gusting 17 7.0
2019-Dec-05 20:40 285 11 gusting 20 7.1
2019-Dec-05 20:35 285 15 gusting 21 7.0
2019-Dec-05 20:30 285 12 gusting 21 7.2
2019-Dec-05 20:25 255 10 gusting 19 7.1
2019-Dec-05 20:20 280 11 gusting 19 7.1
2019-Dec-05 20:15 275 12 gusting 19 7.0
2019-Dec-05 20:10 280 12 gusting 20 7.0
2019-Dec-05 20:05 285 11 gusting 20 7.1
2019-Dec-05 20:00 275 9 gusting 16 7.1
2019-Dec-05 19:55 275 11 gusting 18 7.1
2019-Dec-05 19:50 275 11 gusting 18 7.3
2019-Dec-05 19:45 265 12 gusting 19 7.2
2019-Dec-05 19:40 275 12 gusting 19 7.2
2019-Dec-05 19:35 285 12 gusting 20 7.6
2019-Dec-05 19:30 275 12 gusting 20 7.2
2019-Dec-05 19:25 285 11 gusting 16 7.2
2019-Dec-05 19:20 285 10 gusting 16 7.1
2019-Dec-05 19:15 270 10 gusting 19 7.1
2019-Dec-05 19:10 280 9 gusting 19 7.3
2019-Dec-05 19:05 290 7 gusting 17 7.1
2019-Dec-05 19:00 265 9 gusting 17 7.0
2019-Dec-05 18:55 280 11 gusting 21 7.0
2019-Dec-05 18:50 280 8 gusting 21 7.0
2019-Dec-05 18:45 285 10 gusting 20 7.1
2019-Dec-05 18:40 290 14 gusting 20 7.1
2019-Dec-05 18:35 300 11 gusting 17 7.6
2019-Dec-05 18:30 300 11 gusting 19 6.8
2019-Dec-05 18:25 265 12 gusting 19 6.6
2019-Dec-05 18:20 260 10 gusting 18 6.6
2019-Dec-05 18:15 270 11 gusting 19 6.6
2019-Dec-05 18:10 275 10 gusting 19 6.6
2019-Dec-05 18:05 270 13 gusting 21 6.7
2019-Dec-05 18:00 295 13 gusting 22 7.1
2019-Dec-05 17:55 295 13 gusting 22 7.5
2019-Dec-05 17:50 305 11 gusting 22 7.1
2019-Dec-05 17:45 290 7 gusting 13 7.1
2019-Dec-05 17:40 285 6 gusting 14 7.1
2019-Dec-05 17:35 260 8 gusting 18 6.6
2019-Dec-05 17:30 270 10 gusting 18 6.0
2019-Dec-05 17:25 280 9 gusting 14 6.1
2019-Dec-05 17:20 300 8 gusting 15 5.8
2019-Dec-05 17:15 300 10 gusting 15 5.8
2019-Dec-05 17:10 290 10 gusting 15 6.0
2019-Dec-05 17:05 300 10 gusting 14 5.8
2019-Dec-05 17:00 290 6 gusting 14 6.0
2019-Dec-05 16:55 305 11 gusting 14 5.8
2019-Dec-05 16:50 310 8 gusting 12 6.0
2019-Dec-05 16:45 305 7 gusting 11 5.8
2019-Dec-05 16:40 300 8 gusting 14 5.8
2019-Dec-05 16:35 300 9 gusting 14 5.7
2019-Dec-05 16:30 290 9 gusting 15 5.7
2019-Dec-05 16:25 295 9 gusting 16 5.7
2019-Dec-05 16:20 295 11 gusting 16 5.7
2019-Dec-05 16:10 310 12 gusting 19 5.7
2019-Dec-05 16:05 300 11 gusting 22 5.7
2019-Dec-05 16:00 290 14 gusting 22 5.8
2019-Dec-05 15:55 295 14 gusting 19 5.8
2019-Dec-05 15:50 270 10 gusting 19 6.1
2019-Dec-05 15:45 290 10 gusting 19 6.5
2019-Dec-05 15:40 300 13 gusting 18 6.7
2019-Dec-05 15:35 285 13 gusting 18 6.6
2019-Dec-05 15:30 295 10 gusting 18 6.1
2019-Dec-05 15:25 285 9 gusting 19 5.8
2019-Dec-05 15:20 285 9 gusting 19 5.8
2019-Dec-05 15:15 280 14 gusting 19 5.8
2019-Dec-05 15:10 290 8 gusting 14 6.1
2019-Dec-05 15:05 280 9 gusting 15 6.1
2019-Dec-05 15:00 285 10 gusting 18 6.1
2019-Dec-05 14:55 290 12 gusting 18 5.8
2019-Dec-05 14:50 270 10 gusting 15 5.8
2019-Dec-05 14:45 255 10 gusting 19 5.6
2019-Dec-05 14:40 275 10 gusting 19 5.6
2019-Dec-05 14:35 290 8 gusting 17 5.6
2019-Dec-05 14:30 280 11 gusting 16 5.6
2019-Dec-05 14:25 275 10 gusting 15 5.7
2019-Dec-05 14:20 285 10 gusting 14 5.8
2019-Dec-05 14:15 260 9 gusting 15 6.0
2019-Dec-05 14:10 275 7 gusting 14 5.7
2019-Dec-05 14:05 285 7 gusting 16 5.1
2019-Dec-05 14:00 270 7 gusting 16 5.1
2019-Dec-05 13:55 260 10 gusting 14 5.1
2019-Dec-05 13:50 270 7 gusting 14 5.1
2019-Dec-05 13:45 260 6 gusting 14 5.2
2019-Dec-05 13:40 265 6 gusting 13 5.2
2019-Dec-05 13:35 245 7 gusting 12 5.2
2019-Dec-05 13:30 255 5 gusting 12 5.1
2019-Dec-05 13:25 250 6 gusting 9 5.1
2019-Dec-05 13:20 250 5 gusting 10 5.1
2019-Dec-05 13:15 270 6 gusting 11 5.1
2019-Dec-05 13:10 260 7 gusting 13 5.1
2019-Dec-05 13:05 265 9 gusting 13 5.1
2019-Dec-05 13:00 250 6 gusting 13 5.0
2019-Dec-05 12:55 265 8 gusting 13 4.8
2019-Dec-05 12:50 255 6 gusting 12 4.7
2019-Dec-05 12:45 275 7 gusting 12 4.7
2019-Dec-05 12:40 270 5 gusting 10 4.6
2019-Dec-05 12:35 255 6 gusting 11 4.6
2019-Dec-05 12:30 280 7 gusting 11 4.6
2019-Dec-05 12:25 265 5 gusting 11 4.6
2019-Dec-05 12:20 270 5 gusting 11 4.5
2019-Dec-05 12:15 260 6 gusting 11 4.5
2019-Dec-05 12:10 255 5 gusting 11 4.5
2019-Dec-05 12:05 260 6 gusting 11 4.5
2019-Dec-05 12:00 265 6 gusting 10 4.5
2019-Dec-05 11:55 275 6 gusting 12 4.5
2019-Dec-05 11:50 280 7 gusting 12 4.5
2019-Dec-05 11:45 265 7 gusting 12 4.3
2019-Dec-05 11:40 280 5 gusting 11 4.1
2019-Dec-05 11:35 280 6 gusting 11 4.2
2019-Dec-05 11:30 270 7 gusting 11 4.2
2019-Dec-05 11:25 265 6 gusting 12 4.1
2019-Dec-05 11:20 255 7 gusting 12 4.2
2019-Dec-05 11:15 260 7 gusting 10 4.2
2019-Dec-05 11:10 270 7 gusting 10 4.1
2019-Dec-05 11:05 270 5 gusting 11 4.2
2019-Dec-05 11:00 265 7 gusting 12 4.3
2019-Dec-05 10:55 265 5 gusting 12 4.5
2019-Dec-05 10:50 260 6 gusting 11 4.5
2019-Dec-05 10:45 255 5 gusting 11 4.3
2019-Dec-05 10:40 260 7 gusting 11 4.3
2019-Dec-05 10:35 250 5 gusting 10 4.3
2019-Dec-05 10:30 270 5 gusting 14 4.3
2019-Dec-05 10:25 255 7 gusting 14 4.3
2019-Dec-05 10:20 255 5 gusting 11 4.5
2019-Dec-05 10:15 255 7 gusting 11 4.5
2019-Dec-05 10:10 255 6 gusting 11 4.5
2019-Dec-05 10:05 255 6 gusting 11 4.5
2019-Dec-05 10:00 250 6 gusting 11 4.5
2019-Dec-05 09:55 240 7 gusting 11 4.5
2019-Dec-05 09:50 235 6 gusting 11 4.5
2019-Dec-05 09:45 245 6 gusting 11 4.5
2019-Dec-05 09:40 250 6 gusting 11 4.5
2019-Dec-05 09:35 250 6 gusting 10 4.5
2019-Dec-05 09:30 250 7 gusting 11 4.5
2019-Dec-05 09:25 250 5 gusting 11 4.5
2019-Dec-05 09:20 240 3 gusting 9 4.6
2019-Dec-05 09:15 240 5 gusting 9 4.6
2019-Dec-05 09:10 250 6 gusting 9 4.6
2019-Dec-05 09:05 240 4 gusting 7 4.6
2019-Dec-05 09:00 245 4 gusting 8 4.6
2019-Dec-05 08:55 245 4 gusting 8 4.6
2019-Dec-05 08:50 250 4 gusting 8 4.6
2019-Dec-05 08:45 265 6 gusting 11 4.6
2019-Dec-05 08:40 255 6 gusting 13 4.7
2019-Dec-05 08:35 270 7 gusting 13 4.7
2019-Dec-05 08:30 265 7 gusting 10 4.7
2019-Dec-05 08:25 260 6 gusting 10 4.7
2019-Dec-05 08:20 270 6 gusting 11 4.8
2019-Dec-05 08:15 265 7 gusting 12 4.8
2019-Dec-05 08:10 265 6 gusting 9 4.7
2019-Dec-05 08:05 265 5 gusting 10 4.8
2019-Dec-05 08:00 265 5 gusting 11 4.8
2019-Dec-05 07:55 275 5 gusting 11 4.8
2019-Dec-05 07:50 260 7 gusting 11 4.7
2019-Dec-05 07:45 270 4 gusting 8 4.6
2019-Dec-05 07:40 255 4 gusting 9 4.6
2019-Dec-05 07:35 265 6 gusting 10 4.8
2019-Dec-05 07:30 265 5 gusting 9 4.8
2019-Dec-05 07:25 260 5 gusting 12 4.8
2019-Dec-05 07:20 265 7 gusting 12 4.7
2019-Dec-05 07:15 250 4 gusting 10 4.6
2019-Dec-05 07:10 255 4 gusting 7 4.6
2019-Dec-05 07:05 245 5 gusting 7 4.6
2019-Dec-05 07:00 260 4 gusting 7 4.6
2019-Dec-05 06:55 250 5 gusting 11 4.7
2019-Dec-05 06:50 265 5 gusting 11 4.7
2019-Dec-05 06:45 275 6 gusting 9 4.6
2019-Dec-05 06:40 270 5 gusting 9 4.7
2019-Dec-05 06:35 260 4 gusting 10 4.7
2019-Dec-05 06:30 260 4 gusting 9 4.7
2019-Dec-05 06:25 250 5 gusting 10 4.7
2019-Dec-05 06:20 270 6 gusting 10 4.7
2019-Dec-05 06:15 270 6 gusting 10 4.6
2019-Dec-05 06:10 265 7 gusting 10 4.6
2019-Dec-05 06:05 255 6 gusting 9 4.5
2019-Dec-05 06:00 245 5 gusting 9 4.5
2019-Dec-05 05:55 260 3 gusting 6 4.5
2019-Dec-05 05:50 265 3 gusting 6 4.5
2019-Dec-05 05:45 275 3 gusting 7 4.5
2019-Dec-05 05:40 275 3 gusting 9 4.6
2019-Dec-05 05:35 255 4 gusting 9 4.5
2019-Dec-05 05:30 270 4 gusting 7 4.5
2019-Dec-05 05:25 285 4 gusting 6 4.5
2019-Dec-05 05:20 275 4 gusting 6 4.5
2019-Dec-05 05:15 270 4 gusting 6 4.5
2019-Dec-05 05:10 270 4 gusting 9 4.6
2019-Dec-05 05:05 275 5 gusting 9 4.6
2019-Dec-05 05:00 265 4 gusting 9 4.6
2019-Dec-05 04:55 265 6 gusting 8 4.6
2019-Dec-05 04:50 250 5 gusting 8 4.5
2019-Dec-05 04:45 275 5 gusting 10 4.5
2019-Dec-05 04:40 250 5 gusting 10 4.5
2019-Dec-05 04:35 265 5 gusting 9 4.5
2019-Dec-05 04:30 275 7 gusting 9 4.1
2019-Dec-05 04:25 265 5 gusting 7 3.7
2019-Dec-05 04:20 260 5 gusting 6 3.6
2019-Dec-05 04:15 240 2 gusting 5 3.6
2019-Dec-05 04:10 230 2 gusting 4 3.4
2019-Dec-05 04:05 215 1 gusting 2 3.2
2019-Dec-05 04:00 210 1 gusting 2 3.4
2019-Dec-05 03:55 200 2 gusting 2 3.4
2019-Dec-05 03:50 205 1 gusting 2 3.4
2019-Dec-05 03:45 205 1 gusting 2 3.4
2019-Dec-05 03:40 205 1 gusting 2 3.4
2019-Dec-05 03:35 190 1 gusting 3 3.5
2019-Dec-05 03:30 205 2 gusting 3 3.4
2019-Dec-05 03:25 200 1 gusting 3 3.5
2019-Dec-05 03:20 210 2 gusting 3 3.6
2019-Dec-05 03:15 210 2 gusting 3 3.6
2019-Dec-05 03:10 200 1 gusting 3 3.7
2019-Dec-05 03:05 230 2 gusting 3 4.0
2019-Dec-05 03:00 230 2 gusting 3 4.0
2019-Dec-05 02:55 225 1 gusting 3 4.1
2019-Dec-05 02:50 225 2 gusting 4 4.1
2019-Dec-05 02:45 240 2 gusting 4 4.1
2019-Dec-05 02:40 255 2 gusting 3 4.2
2019-Dec-05 02:35 285 1 gusting 3 4.2
2019-Dec-05 02:30 290 2 gusting 3 4.5
2019-Dec-05 02:25 260 2 gusting 4 4.5
2019-Dec-05 02:20 250 3 gusting 4 4.5
2019-Dec-05 02:15 270 2 gusting 4 4.5
2019-Dec-05 02:10 270 2 gusting 4 4.5
2019-Dec-05 02:05 280 1 gusting 4 4.5
2019-Dec-05 02:00 300 2 gusting 6 4.5
2019-Dec-05 01:55 335 2 gusting 6 4.5
2019-Dec-05 01:50 325 3 gusting 5 4.5
2019-Dec-05 01:45 330 3 gusting 5 4.5
2019-Dec-05 01:40 330 3 gusting 5 4.6
2019-Dec-05 01:35 315 4 gusting 6 4.6
2019-Dec-05 01:30 330 3 gusting 6 4.6
2019-Dec-05 01:25 315 4 gusting 7 4.7
2019-Dec-05 01:20 310 5 gusting 9 4.7
2019-Dec-05 01:15 305 6 gusting 9 4.7
2019-Dec-05 01:10 305 4 gusting 6 4.8
2019-Dec-05 01:05 305 4 gusting 6 4.7
2019-Dec-05 01:00 290 4 gusting 9 4.7
2019-Dec-05 00:55 280 5 gusting 9 4.6
2019-Dec-05 00:50 285 4 gusting 6 4.6
2019-Dec-05 00:45 270 2 gusting 4 4.6
2019-Dec-05 00:40 285 2 gusting 5 4.6
2019-Dec-05 00:35 305 3 gusting 5 4.6
2019-Dec-05 00:30 295 2 gusting 5 4.6
2019-Dec-05 00:25 315 2 gusting 4 4.6
2019-Dec-05 00:20 315 2 gusting 5 4.6
2019-Dec-05 00:15 290 2 gusting 5 4.7
2019-Dec-05 00:10 310 3 gusting 5 4.7
2019-Dec-05 00:05 285 2 gusting 5 4.7
2019-Dec-05 00:00 275 2 gusting 5 4.8
2019-Dec-04 23:55 255 2 gusting 7 4.8
2019-Dec-04 23:50 275 4 gusting 10 5.1
2019-Dec-04 23:45 270 4 gusting 10 5.1
2019-Dec-04 23:40 285 6 gusting 10 5.1
2019-Dec-04 23:35 300 6 gusting 9 5.1
2019-Dec-04 23:30 300 7 gusting 9 5.1
2019-Dec-04 23:25 300 5 gusting 7 5.1
2019-Dec-04 23:20 305 5 gusting 7 5.1
2019-Dec-04 23:15 295 3 gusting 5 5.1
2019-Dec-04 23:10 290 2 gusting 3 5.1
2019-Dec-04 23:05 270 1 gusting 2 5.1
2019-Dec-04 23:00 130 0 gusting 8 5.1
2019-Dec-04 22:55 205 1 gusting 8 5.2
2019-Dec-04 22:50 305 1 gusting 2 5.2
2019-Dec-04 22:45 260 1 gusting 1 5.1
2019-Dec-04 22:40 290 0 gusting 1 5.1
2019-Dec-04 22:35 290 1 gusting 1 5.2
2019-Dec-04 22:30 285 0 gusting 2 5.3
2019-Dec-04 22:25 295 1 gusting 3 5.3
2019-Dec-04 22:20 315 1 gusting 3 5.5
2019-Dec-04 22:15 325 1 gusting 2 5.5
2019-Dec-04 22:10 310 1 gusting 2 5.6
2019-Dec-04 22:05 300 1 gusting 3 5.6
2019-Dec-04 22:00 005 2 gusting 3 5.7
2019-Dec-04 21:55 5.7
2019-Dec-04 21:50 010 2 gusting 3 5.8
2019-Dec-04 21:45 050 1 gusting 3 5.8
2019-Dec-04 21:40 285 0 gusting 3 5.8
2019-Dec-04 21:35 280 1 gusting 3 6.0
2019-Dec-04 21:30 280 1 gusting 3 6.0
2019-Dec-04 21:25 235 1 gusting 2 6.1
2019-Dec-04 21:20 245 1 gusting 3 6.1
2019-Dec-04 21:15 240 1 gusting 3 6.1
2019-Dec-04 21:10 260 1 gusting 3 6.1
2019-Dec-04 21:05 250 2 gusting 4 6.1
2019-Dec-04 21:00 210 2 gusting 5 6.1
2019-Dec-04 20:55 255 3 gusting 4 6.1
2019-Dec-04 20:50 255 1 gusting 5 6.1
2019-Dec-04 20:45 225 3 gusting 5 6.1
2019-Dec-04 20:40 235 2 gusting 5 6.1
2019-Dec-04 20:35 230 2 gusting 8 6.1
2019-Dec-04 20:30 245 5 gusting 8 6.0
2019-Dec-04 20:25 260 4 gusting 8 6.1
2019-Dec-04 20:20 240 4 gusting 13 6.1
2019-Dec-04 20:15 220 6 gusting 13 6.2
2019-Dec-04 20:10 220 6 gusting 10 6.6
2019-Dec-04 20:05 270 4 gusting 8 6.8
2019-Dec-04 20:00 230 5 gusting 9 6.8
2019-Dec-04 19:55 255 6 gusting 9 6.8
2019-Dec-04 19:50 260 6 gusting 9 7.0
2019-Dec-04 19:45 240 6 gusting 10 7.0
2019-Dec-04 19:40 235 6 gusting 10 7.0
2019-Dec-04 19:35 250 5 gusting 11 7.1
2019-Dec-04 19:30 225 6 gusting 11 7.1
2019-Dec-04 19:25 260 5 gusting 11 7.2
2019-Dec-04 19:20 210 4 gusting 11 7.3
2019-Dec-04 19:15 240 5 gusting 9 7.2
2019-Dec-04 19:10 225 5 gusting 9 7.3
2019-Dec-04 19:05 255 4 gusting 12 7.3
2019-Dec-04 19:00 210 6 gusting 12 7.3
2019-Dec-04 18:55 210 7 gusting 11 7.5
2019-Dec-04 18:50 185 3 gusting 8 7.5
2019-Dec-04 18:45 265 6 gusting 9 7.6
2019-Dec-04 18:40 195 5 gusting 10 7.6
2019-Dec-04 18:35 245 4 gusting 10 7.2
2019-Dec-04 18:30 270 5 gusting 11 7.2
2019-Dec-04 18:25 250 6 gusting 11 7.2
2019-Dec-04 18:20 265 6 gusting 11 7.6
2019-Dec-04 18:15 255 6 gusting 12 7.6
2019-Dec-04 18:10 250 6 gusting 13 7.6
2019-Dec-04 18:05 240 5 gusting 13 7.6
2019-Dec-04 18:00 225 7 gusting 12 7.2
2019-Dec-04 17:55 250 7 gusting 12 7.2
2019-Dec-04 17:50 250 8 gusting 12 7.1
2019-Dec-04 17:45 245 8 gusting 12 6.8
2019-Dec-04 17:40 250 7 gusting 12 6.8
2019-Dec-04 17:35 270 8 gusting 13 6.6
2019-Dec-04 17:30 235 8 gusting 13 6.6
2019-Dec-04 17:25 255 6 gusting 13 6.6
2019-Dec-04 17:20 245 8 gusting 16 6.5
2019-Dec-04 17:15 240 10 gusting 16 6.3
2019-Dec-04 17:10 255 9 gusting 14 6.6
2019-Dec-04 17:05 255 9 gusting 15 6.6
2019-Dec-04 17:00 270 11 gusting 15 6.6
2019-Dec-04 16:55 250 9 gusting 15 6.7
2019-Dec-04 16:50 245 8 gusting 15 7.1
2019-Dec-04 16:45 255 7 gusting 12 7.2
2019-Dec-04 16:40 225 6 gusting 12 7.2
2019-Dec-04 16:35 235 6 gusting 12 7.1
2019-Dec-04 16:30 250 6 gusting 12 6.7
2019-Dec-04 16:25 280 8 gusting 13 6.6
2019-Dec-04 16:20 270 9 gusting 13 6.6
2019-Dec-04 16:15 245 9 gusting 13 6.3
2019-Dec-04 16:10 255 8 gusting 13 6.1
2019-Dec-04 16:05 260 5 gusting 12 6.0
2019-Dec-04 16:00 280 8 gusting 12 6.0
2019-Dec-04 15:55 240 6 gusting 13 6.1
2019-Dec-04 15:50 265 8 gusting 13 6.1
2019-Dec-04 15:45 270 8 gusting 11 5.8
2019-Dec-04 15:40 265 6 gusting 9 5.8
2019-Dec-04 15:35 275 4 gusting 13 5.8
2019-Dec-04 15:30 280 8 gusting 13 5.6
2019-Dec-04 15:25 275 8 gusting 11 5.8
2019-Dec-04 15:20 250 7 gusting 12 5.8
2019-Dec-04 15:15 280 8 gusting 12 5.8
2019-Dec-04 15:10 285 9 gusting 12 5.8
2019-Dec-04 15:05 280 6 gusting 10 6.1
2019-Dec-04 15:00 260 5 gusting 10 5.8